{"data":{"norad_id":56505,"epoch":"2026-09-20T04:46:19.661952Z","epoch_age_seconds":140979,"freshness":"FRESH","line1":"1 56505U 23065C   26263.19883868  .00000564  00000+0  30029-4 0  9999","line2":"2 56505  43.0032 194.3230 0001235 271.9048  88.1662 15.27574566186340","mean_motion":15.27574566,"eccentricity":0.0001235,"inclination_deg":43.0032,"raan_deg":194.323,"arg_perigee_deg":271.9048,"mean_anomaly_deg":88.1662,"bstar":3.0029e-5,"rev_number":18634,"period_min":94.267084046227,"perigee_km":482.21800894638,"apogee_km":483.91272593114,"semimajor_km":6861.2023674388,"source":"CELESTRAK","updated_at":"2026-09-21T09:00:33.469290Z"}}